Flag for U.S.A. Weather past 2 weeks in Compton, California, U.S.A.

Now
61 °F

Overcast.


Feels Like: 61 °F
Forecast: 60 / 72 °F
Wind: No wind

Location: Hawthorne Municipal Airport

Current Time: May 26, 2015 at 11:08:05 PM

Latest Report: May 26, 2015 at 9:53 PM


Visibility: 10 mi

Pressure: 29.99 "Hg

Humidity: 78%

Dew point: 54 °F

Location of ComptonLocation

Historic Weather in Compton — Graph

°F

Compton temperature yesterday

Maximum temperature yesterday: 68 °F (at 2:53 PM)
Minimum temperature yesterday: 60 °F (at 12:53 AM)
Average temperature yesterday: 63 °F

Past Weeks' High & Low Weather Summary

 TemperatureHumidityPressure
High70 °F (May 12, 1:53 PM)84% (May 14, 1:53 PM)30.09 "Hg (May 14, 1:53 PM)
Low56 °F (May 15, 6:53 AM)39% (May 12, 3:53 PM)29.84 "Hg (May 12, 3:53 AM)
Average63 °F67%29.97 "Hg
* Reported May 11 9:53 PM — May 26 9:53 PM, Compton, Weather by CustomWeather, © 2015

Note: Actual official high and low records may vary slightly from our data, if they occured in-between our weather recording intervals... More about our weather records

Advertising

Compton weather history for previous 24 hours

 ConditionsComfort  
Time TempWeatherWind HumidityBarometerVisibility
9:53 PM
Tue, May 26
61 °FOvercast.No wind78%29.99 "Hg10 mi
8:53 PM61 °FOvercast.6 mph78%29.99 "Hg10 mi
7:53 PM62 °FOvercast.9 mph75%29.98 "Hg10 mi
6:53 PM63 °FOvercast.10 mph73%29.97 "Hg10 mi
5:53 PM64 °FOvercast.10 mph73%29.96 "Hg10 mi
4:53 PM65 °FOvercast.14 mph70%29.96 "Hg10 mi
3:53 PM67 °FPartly sunny.12 mph66%29.97 "Hg10 mi
2:53 PM68 °FPartly sunny.13 mph63%29.98 "Hg10 mi
1:53 PM68 °FPartly sunny.13 mph61%29.99 "Hg10 mi
12:53 PM67 °FMore clouds than sun.9 mph63%30.00 "Hg10 mi
11:53 AM65 °FMore clouds than sun.8 mph70%30.01 "Hg10 mi
10:53 AM64 °FOvercast.8 mph73%30.00 "Hg10 mi
9:53 AM64 °FOvercast.5 mph70%30.00 "Hg10 mi
8:53 AM63 °FOvercast.No wind73%30.00 "Hg10 mi
7:53 AM62 °FOvercast.No wind78%30.00 "Hg10 mi
6:53 AM62 °FOvercast.No wind78%30.00 "Hg8 mi
5:53 AM62 °FMostly cloudy.5 mph78%29.99 "Hg10 mi
4:53 AM62 °FOvercast.No wind78%29.98 "Hg10 mi
3:53 AM62 °FOvercast.6 mph78%29.98 "Hg10 mi
2:53 AM62 °FOvercast.No wind75%29.97 "Hg10 mi
1:53 AM63 °FOvercast.5 mph73%29.97 "Hg10 mi
12:53 AM63 °FOvercast.No wind73%29.98 "Hg10 mi
11:53 PM
Mon, May 25
63 °FOvercast.No wind73%29.99 "Hg10 mi
Weather by CustomWeather, © 2015

See weather overviewHow to use our weather pages